contact:dominique.lefevre@mio.osupytheas.fr, maurice.libes@osupytheas.fr, didier.mallarino@osupytheas.fr
Project:EMSO http://www.emso-fr.org/EMSO-France
Depth: 2436.0 m
Title:EMSO Ligure Ouest : Data MII capteur AQUADOPP
Date,Latitude,Longitude,X_East,Y_North,Z_Up,Amplitude_X,Amplitude_Y,Amplitude_Z,Batterie,SoundSpeed,Heading,Pitch,Roll,Pressure,TIS,Speed,Direction
, degrees North, degrees East, m.s-1, m.s-1,m.s-1, 1, 1, 1, Volt, m.s-1, degree, degree, degree, dbar, degree_C, m.s-1, degree
2022-10-11T00:04:03,42.805,6.029,-0.007,-0.035,-0.036,101.0,100.0,99.0,13.3,1505.2,318.9,-0.8,1.8,2471.044,13.28,0.035,191.3
2022-10-11T00:07:03,42.805,6.029,-0.029,-0.021,-0.014,101.0,102.0,100.0,13.3,1505.2,332.0,-0.8,1.8,2471.028,13.28,0.035,234.1
2022-10-11T00:10:03,42.805,6.029,0.0,-0.038,-0.021,101.0,102.0,99.0,13.4,1505.2,326.6,-0.8,1.8,2471.013,13.28,0.038,180.0
2022-10-11T00:13:03,42.805,6.029,0.0,-0.014,0.0,102.0,100.0,101.0,13.4,1505.2,326.1,-0.8,1.8,2471.017,13.28,0.014,180.0
2022-10-11T00:16:03,42.805,6.029,-0.004,-0.01,-0.001,100.0,102.0,100.0,13.4,1505.2,326.3,-0.8,1.9,2470.976,13.29,0.01,201.8
2022-10-11T00:19:03,42.805,6.029,0.017,-0.041,-0.027,101.0,100.0,99.0,13.3,1505.2,320.7,-0.7,1.8,2470.979,13.29,0.044,157.5
2022-10-11T00:22:03,42.805,6.029,-0.018,-0.015,0.0,100.0,102.0,100.0,13.3,1505.2,322.1,-0.8,1.8,2471.022,13.29,0.023,230.2
2022-10-11T00:25:03,42.805,6.029,0.002,-0.022,0.003,101.0,100.0,100.0,13.4,1505.2,319.1,-0.7,1.8,2471.002,13.29,0.022,174.8
2022-10-11T00:28:03,42.805,6.029,-0.007,-0.032,-0.063,103.0,102.0,99.0,13.3,1505.2,322.5,-0.8,1.9,2470.973,13.29,0.032,192.3
2022-10-11T00:31:03,42.805,6.029,0.006,-0.028,0.012,101.0,102.0,100.0,13.4,1505.2,326.1,-0.8,1.8,2470.94,13.29,0.028,167.9
2022-10-11T00:34:03,42.805,6.029,0.006,-0.034,0.0,101.0,102.0,99.0,13.3,1505.2,317.9,-0.7,1.8,2471.01,13.29,0.034,170.0
2022-10-11T00:37:03,42.805,6.029,0.011,-0.037,-0.02,100.0,103.0,100.0,13.4,1505.2,317.5,-0.8,1.8,2471.014,13.29,0.038,163.4
2022-10-11T00:40:03,42.805,6.029,-0.021,-0.013,0.0,102.0,101.0,100.0,13.4,1505.2,331.7,-0.7,1.8,2470.911,13.29,0.024,238.2
2022-10-11T00:43:03,42.805,6.029,-0.021,-0.016,0.013,101.0,101.0,99.0,13.4,1505.2,328.6,-0.7,1.9,2470.946,13.29,0.026,232.7
2022-10-11T00:46:03,42.805,6.029,-0.001,-0.017,-0.022,102.0,102.0,99.0,13.4,1505.2,325.4,-0.8,1.8,2470.969,13.29,0.017,183.4
2022-10-11T00:49:03,42.805,6.029,0.008,-0.018,-0.002,100.0,101.0,100.0,13.3,1505.2,329.0,-0.7,1.8,2470.989,13.29,0.019,156.0
2022-10-11T00:52:03,42.805,6.029,0.031,-0.027,0.01,101.0,100.0,100.0,13.4,1505.2,316.7,-0.8,1.8,2470.946,13.29,0.041,131.1
2022-10-11T00:55:03,42.805,6.029,-0.005,-0.013,0.0,100.0,101.0,100.0,13.4,1505.2,333.1,-0.7,1.9,2470.963,13.29,0.013,201.0
2022-10-11T00:58:03,42.805,6.029,-0.014,0.0,0.008,101.0,102.0,99.0,13.3,1505.2,325.0,-0.7,1.8,2470.978,13.29,0.014,270.0
2022-10-11T01:04:03,42.805,6.029,-0.005,-0.019,-0.004,103.0,103.0,100.0,13.4,1505.2,323.6,-0.8,1.8,2471.006,13.28,0.019,194.7
2022-10-11T01:07:03,42.805,6.029,-0.009,-0.024,-0.015,101.0,101.0,100.0,13.4,1505.2,325.4,-0.8,1.8,2471.006,13.28,0.025,200.6
2022-10-11T01:10:03,42.805,6.029,-0.005,-0.009,0.028,101.0,101.0,100.0,13.3,1505.2,328.4,-0.7,1.8,2470.966,13.29,0.01,209.1
2022-10-11T01:13:03,42.805,6.029,0.012,-0.039,0.006,101.0,102.0,99.0,13.3,1505.2,322.4,-0.7,1.8,2471.033,13.29,0.04,162.9
2022-10-11T01:16:03,42.805,6.029,-0.012,0.004,0.014,100.0,102.0,101.0,13.3,1505.2,321.1,-0.8,1.8,2470.981,13.29,0.012,288.4
2022-10-11T01:19:03,42.805,6.029,-0.005,-0.02,-0.002,102.0,102.0,100.0,13.3,1505.2,329.8,-0.7,1.8,2471.01,13.29,0.02,194.0
2022-10-11T01:22:03,42.805,6.029,0.003,-0.032,0.011,101.0,101.0,100.0,13.3,1505.2,317.5,-0.8,1.8,2470.976,13.29,0.032,174.6
2022-10-11T01:25:03,42.805,6.029,0.006,-0.031,-0.013,101.0,101.0,100.0,13.4,1505.2,325.5,-0.7,1.8,2471.031,13.29,0.031,169.0
2022-10-11T01:28:03,42.805,6.029,0.019,-0.005,0.016,99.0,102.0,100.0,13.3,1505.2,322.7,-0.8,1.8,2470.957,13.29,0.019,104.7
2022-10-11T01:31:03,42.805,6.029,-0.008,-0.01,-0.043,99.0,102.0,101.0,13.3,1505.2,327.8,-0.8,1.8,2470.947,13.29,0.012,218.7
2022-10-11T01:34:03,42.805,6.029,-0.006,-0.023,-0.009,101.0,100.0,100.0,13.4,1505.2,332.2,-0.8,1.9,2470.951,13.29,0.023,194.6
2022-10-11T01:37:03,42.805,6.029,-0.004,-0.021,-0.003,100.0,102.0,100.0,13.4,1505.2,326.3,-0.8,1.8,2470.933,13.29,0.021,190.8
2022-10-11T01:40:03,42.805,6.029,0.016,-0.045,-0.027,101.0,100.0,100.0,13.4,1505.2,318.3,-0.8,1.8,2470.925,13.29,0.047,160.4
2022-10-11T01:43:03,42.805,6.029,0.01,-0.041,-0.039,99.0,103.0,101.0,13.3,1505.2,328.4,-0.7,1.8,2470.961,13.29,0.042,166.3
2022-10-11T01:46:03,42.805,6.029,0.014,-0.021,0.006,101.0,102.0,101.0,13.3,1505.2,322.1,-0.8,1.8,2470.91,13.29,0.025,146.3
2022-10-11T01:49:03,42.805,6.029,-0.009,-0.028,-0.022,101.0,101.0,100.0,13.4,1505.2,328.2,-0.8,1.8,2470.965,13.29,0.029,197.8
2022-10-11T01:52:03,42.805,6.029,0.008,-0.01,0.015,101.0,101.0,100.0,13.3,1505.2,330.3,-0.8,1.8,2470.939,13.29,0.012,141.3
2022-10-11T01:55:03,42.805,6.029,-0.005,-0.005,0.027,101.0,101.0,100.0,13.4,1505.2,320.1,-0.7,1.8,2470.912,13.29,0.007,225.0
2022-10-11T01:58:03,42.805,6.029,0.001,-0.019,-0.015,99.0,101.0,100.0,13.4,1505.2,318.7,-0.7,1.8,2470.903,13.29,0.019,177.0
2022-10-11T02:04:03,42.805,6.029,-0.007,-0.019,0.011,101.0,101.0,100.0,13.3,1505.2,333.7,-0.8,1.8,2470.926,13.28,0.02,200.2
2022-10-11T02:07:03,42.805,6.029,0.0,-0.019,-0.033,100.0,103.0,100.0,13.3,1505.2,322.9,-0.8,1.9,2470.943,13.28,0.019,180.0
2022-10-11T02:10:03,42.805,6.029,0.015,-0.018,-0.027,101.0,102.0,99.0,13.4,1505.2,321.2,-0.8,1.8,2470.976,13.28,0.023,140.2
2022-10-11T02:13:03,42.805,6.029,-0.018,-0.031,-0.042,100.0,101.0,100.0,13.4,1505.2,318.1,-0.8,1.8,2470.943,13.28,0.035,210.1
2022-10-11T02:16:03,42.805,6.029,0.014,-0.035,-0.03,101.0,101.0,100.0,13.4,1505.2,329.1,-0.7,1.8,2470.958,13.29,0.037,158.2
2022-10-11T02:19:03,42.805,6.029,-0.001,-0.022,-0.027,101.0,101.0,100.0,13.4,1505.2,320.7,-0.8,1.9,2470.929,13.29,0.022,182.6
2022-10-11T02:22:03,42.805,6.029,-0.018,-0.001,0.001,100.0,100.0,100.0,13.3,1505.2,318.3,-0.7,1.8,2470.931,13.29,0.018,266.8
2022-10-11T02:25:03,42.805,6.029,0.005,-0.022,-0.021,102.0,102.0,100.0,13.3,1505.2,320.4,-0.8,1.8,2470.925,13.29,0.022,167.2
2022-10-11T02:28:03,42.805,6.029,0.021,-0.056,-0.02,101.0,101.0,100.0,13.3,1505.2,329.6,-0.8,1.8,2470.915,13.29,0.059,159.4
2022-10-11T02:31:03,42.805,6.029,0.0,-0.017,-0.011,101.0,101.0,101.0,13.3,1505.2,319.2,-0.7,1.8,2470.933,13.29,0.017,180.0
2022-10-11T02:34:03,42.805,6.029,-0.006,-0.026,-0.013,101.0,101.0,100.0,13.4,1505.2,323.2,-0.8,1.9,2470.949,13.29,0.026,193.0
2022-10-11T02:37:03,42.805,6.029,0.007,-0.012,0.018,101.0,101.0,100.0,13.4,1505.2,326.6,-0.8,1.8,2470.935,13.29,0.013,149.7
2022-10-11T02:40:03,42.805,6.029,-0.006,-0.007,0.008,101.0,102.0,100.0,13.4,1505.2,328.4,-0.8,1.8,2470.946,13.29,0.009,220.6
2022-10-11T02:43:03,42.805,6.029,-0.021,-0.026,-0.025,102.0,102.0,100.0,13.4,1505.2,321.0,-0.8,1.8,2470.908,13.29,0.033,218.9
2022-10-11T02:46:03,42.805,6.029,-0.006,-0.037,-0.001,99.0,104.0,100.0,13.4,1505.2,324.8,-0.8,1.9,2470.954,13.29,0.037,189.2
2022-10-11T02:49:03,42.805,6.029,0.006,-0.015,-0.004,101.0,101.0,100.0,13.3,1505.2,328.1,-0.8,1.9,2470.919,13.29,0.016,158.2
2022-10-11T02:52:03,42.805,6.029,0.013,-0.032,-0.011,101.0,101.0,101.0,13.4,1505.2,324.6,-0.7,1.8,2470.929,13.29,0.034,157.9
2022-10-11T02:55:03,42.805,6.029,-0.023,-0.02,-0.013,101.0,101.0,100.0,13.3,1505.2,332.8,-0.8,1.8,2470.924,13.29,0.03,229.0
2022-10-11T02:58:03,42.805,6.029,0.021,-0.041,-0.023,102.0,101.0,99.0,13.4,1505.2,329.6,-0.7,1.8,2470.951,13.29,0.046,152.9
2022-10-11T03:04:03,42.805,6.029,0.026,-0.031,-0.004,102.0,102.0,99.0,13.4,1505.2,326.1,-0.8,1.8,2470.984,13.28,0.04,140.0
2022-10-11T03:07:03,42.805,6.029,0.02,-0.015,0.018,100.0,101.0,100.0,13.4,1505.2,318.9,-0.8,1.8,2470.958,13.28,0.025,126.9
2022-10-11T03:10:03,42.805,6.029,-0.007,-0.015,0.019,99.0,102.0,100.0,13.4,1505.2,327.0,-0.8,1.8,2470.983,13.28,0.016,205.0
2022-10-11T03:13:03,42.805,6.029,0.038,-0.041,-0.018,100.0,101.0,100.0,13.4,1505.2,326.3,-0.8,1.8,2470.975,13.28,0.055,137.2
2022-10-11T03:16:03,42.805,6.029,0.005,-0.02,0.006,101.0,101.0,99.0,13.3,1505.2,327.9,-0.7,1.8,2470.963,13.28,0.02,166.0
2022-10-11T03:19:03,42.805,6.029,0.016,-0.024,0.012,101.0,101.0,100.0,13.4,1505.2,328.4,-0.7,1.9,2470.95,13.29,0.028,146.3
2022-10-11T03:22:03,42.805,6.029,0.017,-0.015,-0.009,100.0,101.0,99.0,13.4,1505.2,318.2,-0.8,1.8,2470.964,13.29,0.022,131.4
2022-10-11T03:25:03,42.805,6.029,0.003,0.0,-0.022,101.0,101.0,100.0,13.3,1505.2,328.7,-0.8,1.8,2470.971,13.29,0.003,90.0
2022-10-11T03:28:03,42.805,6.029,-0.004,-0.035,-0.005,101.0,100.0,100.0,13.3,1505.2,331.8,-0.8,1.8,2470.93,13.29,0.035,186.5
2022-10-11T03:31:03,42.805,6.029,0.037,-0.04,-0.028,102.0,101.0,99.0,13.3,1505.2,316.2,-0.8,1.8,2470.976,13.29,0.054,137.2
2022-10-11T03:34:03,42.805,6.029,0.001,-0.038,0.002,101.0,101.0,100.0,13.4,1505.2,331.4,-0.8,1.8,2470.96,13.29,0.038,178.5
2022-10-11T03:37:03,42.805,6.029,0.017,-0.037,-0.007,101.0,102.0,100.0,13.3,1505.2,334.3,-0.7,1.8,2470.957,13.29,0.04,155.3
2022-10-11T03:40:03,42.805,6.029,0.0,-0.023,-0.03,101.0,101.0,99.0,13.4,1505.2,321.9,-0.8,1.8,2470.962,13.29,0.023,180.0
2022-10-11T03:43:03,42.805,6.029,0.022,-0.04,-0.001,100.0,100.0,100.0,13.4,1505.2,329.0,-0.8,1.8,2470.957,13.29,0.045,151.2
2022-10-11T03:46:03,42.805,6.029,-0.005,-0.032,-0.022,101.0,100.0,100.0,13.4,1505.2,323.8,-0.7,1.8,2470.988,13.29,0.032,188.9
2022-10-11T03:49:03,42.805,6.029,-0.006,-0.032,-0.038,103.0,101.0,100.0,13.4,1505.2,324.7,-0.7,1.8,2470.967,13.29,0.032,190.6
2022-10-11T03:52:03,42.805,6.029,0.0,-0.021,0.004,102.0,101.0,99.0,13.3,1505.2,322.7,-0.7,1.8,2470.985,13.29,0.021,180.0
2022-10-11T03:55:03,42.805,6.029,0.013,0.005,0.01,101.0,100.0,99.0,13.4,1505.2,320.7,-0.8,1.9,2470.957,13.29,0.013,69.0
2022-10-11T03:58:03,42.805,6.029,0.003,-0.027,-0.013,101.0,99.0,101.0,13.4,1505.2,324.3,-0.7,1.8,2470.967,13.29,0.027,173.7
2022-10-11T04:04:03,42.805,6.029,0.0,-0.022,0.0,100.0,101.0,99.0,13.4,1505.2,323.1,-0.8,1.8,2471.033,13.28,0.022,180.0
2022-10-11T04:07:03,42.805,6.029,-0.02,-0.017,-0.013,103.0,101.0,101.0,13.4,1505.2,325.3,-0.8,1.8,2471.029,13.28,0.026,229.6
2022-10-11T04:10:03,42.805,6.029,0.005,-0.045,-0.029,101.0,101.0,100.0,13.4,1505.2,319.5,-0.8,1.8,2471.023,13.28,0.045,173.7
2022-10-11T04:13:03,42.805,6.029,0.009,-0.022,-0.012,101.0,101.0,100.0,13.4,1505.2,325.9,-0.8,1.8,2471.021,13.28,0.023,157.8
2022-10-11T04:16:03,42.805,6.029,-0.013,-0.036,-0.024,101.0,100.0,101.0,13.3,1505.2,322.3,-0.8,1.8,2470.976,13.29,0.038,199.9
2022-10-11T04:19:03,42.805,6.029,-0.02,-0.034,-0.04,101.0,101.0,100.0,13.4,1505.2,324.3,-0.7,1.8,2470.981,13.29,0.039,210.5
2022-10-11T04:22:03,42.805,6.029,0.009,-0.015,0.013,102.0,102.0,100.0,13.4,1505.2,329.3,-0.8,1.8,2470.983,13.29,0.017,149.0
2022-10-11T04:25:03,42.805,6.029,0.007,-0.026,-0.021,101.0,100.0,101.0,13.4,1505.2,321.6,-0.8,1.8,2470.972,13.29,0.026,164.9
2022-10-11T04:28:03,42.805,6.029,-0.005,-0.049,-0.023,101.0,100.0,102.0,13.4,1505.2,326.1,-0.7,1.8,2471.0,13.29,0.049,185.8
2022-10-11T04:31:03,42.805,6.029,0.017,-0.026,-0.014,100.0,101.0,100.0,13.3,1505.2,321.7,-0.7,1.8,2471.001,13.29,0.031,146.8
2022-10-11T04:34:03,42.805,6.029,-0.028,-0.006,0.034,102.0,101.0,100.0,13.4,1505.2,326.3,-0.7,1.8,2471.002,13.29,0.028,257.9
2022-10-11T04:37:03,42.805,6.029,0.029,-0.034,0.004,101.0,102.0,99.0,13.3,1505.2,320.7,-0.8,1.8,2470.996,13.29,0.044,139.5
2022-10-11T04:40:03,42.805,6.029,0.002,-0.048,-0.027,101.0,101.0,100.0,13.4,1505.2,322.8,-0.8,1.8,2470.989,13.29,0.048,177.6
2022-10-11T04:43:03,42.805,6.029,0.008,-0.018,0.0,101.0,101.0,100.0,13.4,1505.2,333.4,-0.8,1.8,2471.051,13.29,0.019,156.0
2022-10-11T04:46:03,42.805,6.029,0.007,-0.013,0.019,100.0,101.0,100.0,13.3,1505.2,324.9,-0.8,1.8,2471.01,13.29,0.014,151.7
2022-10-11T04:49:03,42.805,6.029,0.012,-0.033,-0.011,102.0,101.0,100.0,13.4,1505.2,333.1,-0.8,1.8,2470.998,13.29,0.035,160.0
2022-10-11T04:52:03,42.805,6.029,0.02,-0.035,-0.022,100.0,100.0,100.0,13.4,1505.2,334.3,-0.8,1.8,2470.97,13.29,0.04,150.3
2022-10-11T04:55:03,42.805,6.029,0.002,-0.037,0.004,101.0,100.0,100.0,13.3,1505.2,325.7,-0.8,1.8,2471.035,13.29,0.037,176.9
2022-10-11T04:58:03,42.805,6.029,-0.001,-0.027,-0.02,100.0,101.0,100.0,13.4,1505.2,323.1,-0.7,1.8,2471.02,13.29,0.027,182.1
2022-10-11T05:04:03,42.805,6.029,-0.006,-0.012,0.007,100.0,101.0,100.0,13.3,1505.2,333.7,-0.8,1.8,2471.082,13.28,0.013,206.6
2022-10-11T05:07:03,42.805,6.029,0.016,-0.023,-0.022,101.0,101.0,99.0,13.4,1505.2,320.5,-0.8,1.8,2471.059,13.28,0.028,145.2
2022-10-11T05:10:03,42.805,6.029,0.011,-0.014,-0.031,101.0,101.0,100.0,13.3,1505.2,322.8,-0.7,1.9,2471.071,13.28,0.017,141.8
2022-10-11T05:13:03,42.805,6.029,0.01,-0.015,-0.021,101.0,102.0,99.0,13.3,1505.2,328.4,-0.8,1.8,2471.071,13.28,0.018,146.3
2022-10-11T05:16:03,42.805,6.029,0.003,-0.019,-0.02,101.0,101.0,100.0,13.4,1505.2,326.5,-0.7,1.8,2471.047,13.28,0.019,171.0
2022-10-11T05:19:03,42.805,6.029,0.004,-0.016,-0.016,101.0,101.0,100.0,13.4,1505.2,321.2,-0.8,1.8,2471.039,13.29,0.016,166.0
2022-10-11T05:22:03,42.805,6.029,0.015,-0.052,-0.033,100.0,101.0,101.0,13.3,1505.2,325.9,-0.7,1.8,2471.057,13.29,0.054,163.9
2022-10-11T05:25:03,42.805,6.029,0.017,-0.028,-0.006,101.0,101.0,100.0,13.3,1505.2,332.5,-0.7,1.8,2471.056,13.29,0.032,148.7
2022-10-11T05:28:03,42.805,6.029,0.01,-0.018,0.004,101.0,101.0,100.0,13.3,1505.2,317.5,-0.7,1.8,2471.078,13.29,0.02,150.9
2022-10-11T05:31:03,42.805,6.029,0.009,-0.005,0.021,101.0,100.0,100.0,13.4,1505.2,319.1,-0.7,1.8,2471.049,13.29,0.01,119.1
2022-10-11T05:34:03,42.805,6.029,0.028,-0.024,0.006,101.0,102.0,100.0,13.3,1505.2,330.1,-0.7,1.8,2471.039,13.29,0.036,130.6
2022-10-11T05:37:03,42.805,6.029,0.0,-0.036,-0.003,101.0,101.0,101.0,13.4,1505.2,324.7,-0.7,1.8,2471.06,13.29,0.036,180.0
2022-10-11T05:40:03,42.805,6.029,0.012,-0.028,-0.028,101.0,102.0,100.0,13.3,1505.2,327.6,-0.8,1.8,2471.073,13.29,0.03,156.8
2022-10-11T05:43:03,42.805,6.029,0.018,-0.032,-0.007,102.0,100.0,100.0,13.4,1505.2,321.8,-0.8,1.8,2471.054,13.29,0.036,150.6
2022-10-11T05:46:03,42.805,6.029,0.009,-0.024,-0.007,101.0,101.0,100.0,13.4,1505.2,329.3,-0.8,1.9,2471.077,13.29,0.025,159.4
2022-10-11T05:49:03,42.805,6.029,-0.019,-0.012,-0.022,102.0,102.0,101.0,13.4,1505.2,317.6,-0.8,1.8,2471.082,13.29,0.022,237.7
2022-10-11T05:52:03,42.805,6.029,0.009,-0.031,0.004,100.0,101.0,100.0,13.4,1505.2,321.0,-0.8,1.8,2471.098,13.29,0.032,163.8
2022-10-11T05:55:03,42.805,6.029,0.004,-0.044,-0.024,101.0,100.0,101.0,13.3,1505.2,326.8,-0.8,1.8,2471.049,13.29,0.044,174.8
2022-10-11T05:58:03,42.805,6.029,0.018,-0.028,-0.022,100.0,102.0,100.0,13.3,1505.2,321.9,-0.8,1.8,2471.087,13.29,0.033,147.3
2022-10-11T07:04:03,42.805,6.029,-0.014,-0.022,-0.027,102.0,102.0,100.0,13.3,1505.1,329.2,-0.8,1.9,2471.631,13.27,0.026,212.5
2022-10-11T07:07:03,42.805,6.029,0.006,-0.041,0.021,101.0,101.0,100.0,13.3,1505.2,325.1,-0.8,1.8,2471.566,13.28,0.041,171.7
2022-10-11T07:10:03,42.805,6.029,0.025,-0.047,0.001,101.0,102.0,100.0,13.4,1505.2,319.1,-0.8,1.8,2471.431,13.28,0.053,152.0
2022-10-11T07:13:03,42.805,6.029,-0.006,-0.026,0.027,101.0,102.0,100.0,13.4,1505.2,332.2,-0.8,1.8,2471.382,13.28,0.026,193.0
2022-10-11T07:16:03,42.805,6.029,0.005,-0.028,-0.038,101.0,102.0,99.0,13.4,1505.2,315.8,-0.8,1.8,2471.307,13.28,0.028,169.9
2022-10-11T07:19:03,42.805,6.029,-0.008,-0.05,-0.026,101.0,102.0,100.0,13.4,1505.2,330.1,-0.8,1.8,2471.296,13.28,0.05,189.1
2022-10-11T07:22:03,42.805,6.029,-0.014,-0.018,0.027,102.0,102.0,100.0,13.4,1505.2,331.5,-0.7,1.8,2471.208,13.28,0.022,217.9
2022-10-11T07:25:03,42.805,6.029,0.015,-0.02,-0.002,102.0,102.0,100.0,13.3,1505.2,322.7,-0.8,1.8,2471.182,13.28,0.025,143.1
2022-10-11T07:28:03,42.805,6.029,0.016,-0.014,-0.011,102.0,101.0,100.0,13.4,1505.2,328.4,-0.7,1.8,2471.232,13.29,0.021,131.2
2022-10-11T07:31:03,42.805,6.029,0.0,-0.028,-0.013,102.0,100.0,100.0,13.4,1505.2,329.1,-0.7,1.8,2471.156,13.29,0.028,180.0
2022-10-11T07:34:03,42.805,6.029,-0.001,-0.024,-0.053,102.0,100.0,101.0,13.3,1505.2,319.2,-0.8,1.8,2471.161,13.29,0.024,182.4
2022-10-11T07:37:03,42.805,6.029,0.008,-0.027,-0.023,101.0,102.0,99.0,13.4,1505.2,318.3,-0.7,1.8,2471.157,13.29,0.028,163.5
2022-10-11T07:40:03,42.805,6.029,0.0,-0.016,-0.009,101.0,101.0,100.0,13.3,1505.2,326.4,-0.8,1.8,2471.147,13.29,0.016,180.0
2022-10-11T07:43:03,42.805,6.029,-0.016,-0.016,-0.004,101.0,102.0,100.0,13.4,1505.2,321.4,-0.8,1.9,2471.125,13.29,0.022,225.0
2022-10-11T07:46:03,42.805,6.029,0.003,0.004,0.02,101.0,102.0,99.0,13.3,1505.2,326.8,-0.8,1.8,2471.139,13.29,0.005,36.9
2022-10-11T07:49:03,42.805,6.029,0.002,-0.04,-0.011,102.0,102.0,100.0,13.4,1505.2,316.2,-0.8,1.8,2471.148,13.29,0.04,177.1
2022-10-11T07:52:03,42.805,6.029,-0.01,-0.047,-0.076,101.0,101.0,100.0,13.3,1505.2,331.7,-0.8,1.8,2471.108,13.29,0.048,192.0
2022-10-11T07:55:03,42.805,6.029,0.004,-0.004,0.002,103.0,101.0,99.0,13.4,1505.2,322.9,-0.7,1.8,2471.091,13.29,0.005,135.0
2022-10-11T07:58:03,42.805,6.029,0.015,-0.032,-0.004,101.0,102.0,100.0,13.3,1505.2,325.3,-0.8,1.8,2471.103,13.29,0.035,154.9
2022-10-11T08:04:03,42.805,6.029,0.01,-0.056,-0.033,101.0,102.0,100.0,13.4,1505.2,330.1,-0.8,1.8,2471.195,13.28,0.056,169.9
2022-10-11T08:07:03,42.805,6.029,0.01,-0.047,-0.002,101.0,102.0,100.0,13.4,1505.2,318.8,-0.8,1.8,2471.164,13.28,0.048,168.0
2022-10-11T08:10:03,42.805,6.029,0.003,-0.013,0.018,101.0,101.0,101.0,13.4,1505.2,319.5,-0.7,1.8,2471.121,13.28,0.013,167.0
2022-10-11T08:13:03,42.805,6.029,0.014,-0.027,-0.009,101.0,102.0,100.0,13.4,1505.2,322.5,-0.8,1.8,2471.169,13.28,0.03,152.6
2022-10-11T08:16:03,42.805,6.029,-0.002,-0.001,0.025,102.0,101.0,100.0,13.4,1505.2,330.4,-0.8,1.8,2471.139,13.28,0.002,243.4
2022-10-11T08:19:03,42.805,6.029,0.02,-0.04,-0.017,102.0,101.0,100.0,13.4,1505.2,323.5,-0.8,1.8,2471.105,13.29,0.044,153.4
2022-10-11T08:22:03,42.805,6.029,0.007,-0.036,-0.037,101.0,102.0,101.0,13.4,1505.2,328.6,-0.8,1.8,2471.15,13.29,0.036,169.0
2022-10-11T08:25:03,42.805,6.029,0.018,-0.016,0.011,101.0,102.0,100.0,13.3,1505.2,333.4,-0.8,1.8,2471.124,13.29,0.024,131.6
2022-10-11T08:28:03,42.805,6.029,-0.002,-0.029,-0.031,102.0,101.0,100.0,13.3,1505.2,327.0,-0.8,1.8,2471.139,13.29,0.029,183.9
2022-10-11T08:31:03,42.805,6.029,0.008,-0.022,-0.019,103.0,101.0,99.0,13.4,1505.2,320.2,-0.8,1.8,2471.144,13.29,0.023,160.0
2022-10-11T08:34:03,42.805,6.029,-0.021,-0.018,0.007,101.0,101.0,100.0,13.3,1505.2,332.1,-0.8,1.8,2471.111,13.29,0.027,229.4
2022-10-11T08:37:03,42.805,6.029,-0.023,-0.019,-0.001,101.0,102.0,100.0,13.3,1505.2,324.9,-0.7,1.8,2471.081,13.29,0.029,230.4
2022-10-11T08:40:03,42.805,6.029,0.003,-0.051,-0.05,101.0,101.0,100.0,13.4,1505.2,320.2,-0.8,1.8,2471.137,13.29,0.051,176.6
2022-10-11T08:43:03,42.805,6.029,0.021,-0.035,-0.024,102.0,102.0,100.0,13.4,1505.2,324.5,-0.7,1.8,2471.106,13.29,0.04,149.0
2022-10-11T08:46:03,42.805,6.029,0.008,-0.032,-0.033,102.0,100.0,99.0,13.4,1505.2,323.4,-0.7,1.8,2471.138,13.29,0.032,166.0
2022-10-11T08:49:03,42.805,6.029,0.0,-0.022,-0.001,102.0,101.0,100.0,13.4,1505.2,334.3,-0.8,1.9,2471.149,13.29,0.022,180.0
2022-10-11T08:52:03,42.805,6.029,0.0,-0.026,-0.007,102.0,101.0,99.0,13.3,1505.2,319.8,-0.8,1.8,2471.12,13.29,0.026,180.0
2022-10-11T08:55:03,42.805,6.029,0.031,-0.033,-0.059,100.0,102.0,100.0,13.4,1505.2,322.2,-0.8,1.8,2471.116,13.29,0.045,136.8
2022-10-11T08:58:03,42.805,6.029,-0.009,-0.036,-0.026,101.0,102.0,100.0,13.3,1505.2,321.7,-0.8,1.8,2471.115,13.29,0.037,194.0
2022-10-11T09:04:03,42.805,6.029,-0.008,-0.027,0.0,101.0,102.0,100.0,13.4,1505.2,326.1,-0.8,1.8,2471.141,13.28,0.028,196.5
2022-10-11T09:07:03,42.805,6.029,-0.008,-0.017,0.015,101.0,101.0,100.0,13.4,1505.2,320.7,-0.8,1.8,2471.192,13.28,0.018,205.2
2022-10-11T09:10:03,42.805,6.029,-0.01,-0.003,-0.021,102.0,100.0,101.0,13.3,1505.2,332.8,-0.7,1.8,2471.137,13.28,0.01,253.3
2022-10-11T09:13:03,42.805,6.029,-0.009,-0.018,0.0,101.0,102.0,100.0,13.3,1505.2,325.9,-0.8,1.8,2471.09,13.28,0.02,206.6
2022-10-11T09:16:03,42.805,6.029,-0.011,-0.012,0.011,100.0,102.0,100.0,13.3,1505.2,329.3,-0.8,1.8,2471.082,13.29,0.016,222.5
2022-10-11T09:19:03,42.805,6.029,-0.008,-0.018,0.002,102.0,102.0,100.0,13.3,1505.2,321.5,-0.7,1.8,2471.122,13.29,0.019,204.0
2022-10-11T09:22:03,42.805,6.029,0.018,-0.04,-0.043,102.0,101.0,101.0,13.4,1505.2,323.9,-0.8,1.8,2471.163,13.29,0.043,155.8
2022-10-11T09:25:03,42.805,6.029,-0.038,-0.019,-0.018,101.0,101.0,100.0,13.4,1505.2,325.7,-0.8,1.8,2471.122,13.29,0.042,243.4
2022-10-11T09:28:03,42.805,6.029,-0.008,-0.022,-0.02,102.0,102.0,100.0,13.4,1505.2,322.0,-0.8,1.8,2471.109,13.29,0.023,200.0
2022-10-11T09:31:03,42.805,6.029,-0.007,-0.013,0.0,102.0,101.0,100.0,13.3,1505.2,329.9,-0.8,1.8,2471.11,13.29,0.014,208.3
2022-10-11T09:34:03,42.805,6.029,0.016,-0.035,-0.019,101.0,101.0,99.0,13.4,1505.2,317.0,-0.8,1.8,2471.108,13.29,0.038,155.4
2022-10-11T09:37:03,42.805,6.029,-0.01,-0.015,0.011,101.0,102.0,100.0,13.4,1505.2,328.5,-0.7,1.8,2471.086,13.29,0.018,213.7
2022-10-11T09:40:03,42.805,6.029,0.003,-0.03,0.009,103.0,102.0,99.0,13.4,1505.2,317.6,-0.8,1.9,2471.136,13.29,0.03,174.3
2022-10-11T09:43:03,42.805,6.029,0.003,-0.043,-0.006,101.0,102.0,100.0,13.3,1505.2,330.2,-0.8,1.8,2471.091,13.29,0.043,176.0
2022-10-11T09:46:03,42.805,6.029,0.001,-0.03,-0.045,103.0,101.0,100.0,13.4,1505.2,329.7,-0.8,1.8,2471.082,13.29,0.03,178.1
2022-10-11T09:49:03,42.805,6.029,0.0,-0.02,-0.011,102.0,101.0,99.0,13.4,1505.2,334.3,-0.8,1.8,2471.087,13.29,0.02,180.0
2022-10-11T09:52:03,42.805,6.029,0.004,-0.011,-0.01,101.0,101.0,100.0,13.4,1505.2,332.1,-0.7,1.9,2471.108,13.29,0.011,160.0
2022-10-11T09:55:03,42.805,6.029,0.027,-0.036,-0.014,100.0,100.0,100.0,13.4,1505.2,321.8,-0.8,1.8,2471.107,13.29,0.045,143.1
2022-10-11T09:58:03,42.805,6.029,-0.017,-0.029,-0.021,101.0,100.0,100.0,13.4,1505.2,326.1,-0.7,1.8,2471.064,13.29,0.033,210.4
2022-10-11T10:04:03,42.805,6.029,-0.028,-0.035,-0.038,100.0,101.0,100.0,13.4,1505.2,328.9,-0.8,1.8,2471.096,13.28,0.044,218.7
2022-10-11T10:07:03,42.805,6.029,-0.004,-0.021,-0.017,102.0,101.0,100.0,13.4,1505.2,328.0,-0.7,1.8,2471.117,13.28,0.021,190.8
2022-10-11T10:10:03,42.805,6.029,-0.02,-0.032,-0.058,101.0,101.0,99.0,13.4,1505.2,322.8,-0.7,1.8,2471.116,13.28,0.037,212.0
2022-10-11T10:13:03,42.805,6.029,-0.002,-0.026,-0.028,100.0,101.0,100.0,13.3,1505.2,332.5,-0.7,1.8,2471.136,13.28,0.026,184.4
2022-10-11T10:16:03,42.805,6.029,-0.01,-0.033,-0.028,100.0,101.0,100.0,13.4,1505.2,325.1,-0.8,1.8,2471.121,13.28,0.034,196.9
2022-10-11T10:19:03,42.805,6.029,0.001,-0.047,-0.055,101.0,100.0,99.0,13.4,1505.2,325.1,-0.7,1.8,2471.099,13.28,0.047,178.8
2022-10-11T10:22:03,42.805,6.029,-0.002,-0.032,-0.027,100.0,100.0,100.0,13.4,1505.2,324.5,-0.8,1.8,2471.071,13.29,0.032,183.6
2022-10-11T10:25:03,42.805,6.029,-0.006,-0.033,-0.011,101.0,100.0,100.0,13.4,1505.2,325.1,-0.8,1.8,2471.069,13.29,0.033,190.3
2022-10-11T10:28:03,42.805,6.029,-0.004,-0.024,-0.02,101.0,101.0,99.0,13.4,1505.2,323.8,-0.7,1.8,2471.078,13.29,0.024,189.5
2022-10-11T10:31:03,42.805,6.029,-0.015,-0.02,-0.015,101.0,100.0,99.0,13.4,1505.2,326.6,-0.7,1.8,2471.04,13.29,0.025,216.9
2022-10-11T10:34:03,42.805,6.029,-0.045,-0.008,-0.004,101.0,102.0,100.0,13.4,1505.2,326.8,-0.7,1.8,2471.081,13.29,0.045,259.9
2022-10-11T10:37:03,42.805,6.029,-0.026,-0.018,-0.019,110.0,101.0,100.0,13.3,1505.2,326.6,-0.8,1.8,2471.054,13.29,0.031,235.3
2022-10-11T10:40:03,42.805,6.029,-0.029,-0.006,-0.003,100.0,100.0,101.0,13.3,1505.2,326.6,-0.8,1.8,2471.065,13.29,0.029,258.3
2022-10-11T10:43:03,42.805,6.029,-0.009,-0.005,-0.013,100.0,101.0,100.0,13.3,1505.2,324.7,-0.7,1.8,2471.042,13.29,0.01,240.9
2022-10-11T10:46:03,42.805,6.029,-0.003,-0.03,-0.012,101.0,101.0,99.0,13.3,1505.2,323.8,-0.8,1.8,2471.074,13.29,0.03,185.7
2022-10-11T10:49:03,42.805,6.029,0.001,-0.027,-0.017,100.0,101.0,100.0,13.4,1505.2,322.7,-0.8,1.9,2471.059,13.29,0.027,177.9
2022-10-11T10:52:03,42.805,6.029,-0.034,-0.021,-0.02,100.0,101.0,99.0,13.4,1505.2,328.9,-0.8,1.8,2471.041,13.29,0.039,238.3
2022-10-11T10:55:03,42.805,6.029,-0.004,-0.014,-0.001,101.0,101.0,99.0,13.4,1505.2,328.2,-0.7,1.8,2471.062,13.29,0.014,195.9